This is the latest recevied weather packets stored in our database for station/object OE5RBO. If no packets are shown the sender has not sent any weather packets the latest 10 day(s).
| Time | Temp. | Humidity | Pressure | Rain* | Wind** | Luminosity | Snow |
|---|---|---|---|---|---|---|---|
| 1788390868 | 17.22° C | 91% | 1021.6 hPa | 0 mm | - | - | - |
| 1788389067 | 17.22° C | 89% | 1021.6 hPa | 0 mm | - | - | - |
| 1788388466 | 17.22° C | 91% | 1021.6 hPa | 0 mm | - | - | - |
| 1788387866 | 16.67° C | 93% | 1021.4 hPa | 0 mm | - | - | - |
| 1788387266 | 16.67° C | 92% | 1021.2 hPa | 0 mm | - | - | - |
| 1788386665 | 16.67° C | 92% | 1021.1 hPa | 0 mm | - | - | - |
| 1788386065 | 16.67° C | 91% | 1021.1 hPa | 0 mm | - | - | - |
| 1788385465 | 17.22° C | 91% | 1021 hPa | 0 mm | - | - | - |
| 1788384864 | 17.22° C | 90% | 1021 hPa | 0 mm | - | - | - |
| 1788384264 | 17.22° C | 91% | 1021 hPa | 0 mm | - | - | - |
| 1788383664 | 17.22° C | 89% | 1020.9 hPa | 0 mm | - | - | - |
| 1788383063 | 17.78° C | 88% | 1020.9 hPa | 0 mm | - | - | - |
| 1788382463 | 17.78° C | 87% | 1020.9 hPa | 0 mm | - | - | - |
| 1788381262 | 18.33° C | 87% | 1020.9 hPa | 0 mm | - | - | - |
| 1788380662 | 18.33° C | 86% | 1020.8 hPa | 0 mm | - | - | - |
| 1788380061 | 18.33° C | 85% | 1021 hPa | 0 mm | - | - | - |
| 1788379461 | 18.89° C | 84% | 1021 hPa | 0 mm | - | - | - |
| 1788378861 | 18.89° C | 84% | 1021 hPa | 0 mm | - | - | - |
| 1788377660 | 19.44° C | 81% | 1020.9 hPa | 0 mm | - | - | - |
| 1788377060 | 20° C | 79% | 1020.9 hPa | 0 mm | - | - | - |
| 1788376459 | 20.56° C | 74% | 1020.8 hPa | 0 mm | - | - | - |
| 1788375259 | 21.11° C | 74% | 1020.8 hPa | 0 mm | - | - | - |
| 1788374658 | 20.56° C | 74% | 1020.7 hPa | 0 mm | - | - | - |
| 1788374058 | 21.11° C | 74% | 1020.6 hPa | 0 mm | - | - | - |
| 1788373458 | 21.67° C | 71% | 1020.3 hPa | 0 mm | - | - | - |
* Rain since midnight (hover to see other rain measurements)
** Current wind speed in m/s (hover to see current wind gust speed)